TimeMDT,TemperatureF,Dew PointF,Humidity,Sea Level PressureIn,VisibilityMPH,Wind Direction,Wind SpeedMPH,Gust SpeedMPH,PrecipitationIn,Events,Conditions,WindDirDegrees,DateUTC
12:53 AM,73.0,42.1,33,29.79,10.0,South,3.5,-,N/A,,Clear,180,2013-07-11 06:53:00
1:53 AM,70.0,41.0,35,29.78,10.0,SE,3.5,-,N/A,,Clear,130,2013-07-11 07:53:00
2:53 AM,69.1,39.0,33,29.77,10.0,ESE,5.8,-,N/A,,Clear,110,2013-07-11 08:53:00
3:53 AM,66.9,41.0,39,29.77,10.0,ESE,5.8,-,N/A,,Clear,110,2013-07-11 09:53:00
4:53 AM,64.9,39.0,39,29.77,10.0,ESE,5.8,-,N/A,,Clear,110,2013-07-11 10:53:00
5:53 AM,64.9,39.0,39,29.76,10.0,SE,5.8,-,N/A,,Clear,130,2013-07-11 11:53:00
6:53 AM,66.9,39.9,37,29.75,10.0,SE,5.8,-,N/A,,Clear,130,2013-07-11 12:53:00
7:53 AM,73.0,43.0,34,29.75,10.0,SE,5.8,-,N/A,,Clear,130,2013-07-11 13:53:00
8:53 AM,79.0,46.0,31,29.73,10.0,SE,3.5,-,N/A,,Clear,130,2013-07-11 14:53:00
9:53 AM,84.9,46.0,26,29.71,10.0,SSE,5.8,-,N/A,,Clear,150,2013-07-11 15:53:00
10:53 AM,91.0,44.1,20,29.69,10.0,SSE,8.1,-,N/A,,Clear,160,2013-07-11 16:53:00
11:53 AM,91.0,43.0,19,29.68,10.0,SE,3.5,-,N/A,,Clear,140,2013-07-11 17:53:00
12:53 PM,93.9,44.1,18,29.66,10.0,SSE,8.1,-,N/A,,Clear,150,2013-07-11 18:53:00
1:53 PM,96.1,41.0,15,29.64,10.0,East,6.9,-,N/A,,Clear,100,2013-07-11 19:53:00
2:53 PM,96.1,34.0,11,29.63,10.0,SSE,5.8,-,N/A,,Clear,150,2013-07-11 20:53:00
3:53 PM,98.1,30.9,9,29.61,10.0,SE,4.6,-,N/A,,Clear,130,2013-07-11 21:53:00
4:53 PM,98.1,30.9,9,29.59,10.0,West,6.9,-,N/A,,Clear,280,2013-07-11 22:53:00
5:53 PM,97.0,30.9,10,29.57,10.0,WNW,9.2,-,N/A,,Clear,300,2013-07-11 23:53:00
6:53 PM,93.9,35.1,13,29.57,10.0,NNW,18.4,25.3,N/A,,Clear,330,2013-07-12 00:53:00
7:53 PM,91.0,37.9,15,29.58,10.0,NW,17.3,-,N/A,,Clear,320,2013-07-12 01:53:00
8:53 PM,86.0,43.0,22,29.60,10.0,NNW,19.6,-,N/A,,Partly Cloudy,330,2013-07-12 02:53:00
9:53 PM,84.9,41.0,21,29.62,10.0,NW,20.7,-,N/A,,Scattered Clouds,320,2013-07-12 03:53:00
10:53 PM,82.0,42.1,24,29.66,10.0,NW,24.2,32.2,N/A,,Partly Cloudy,310,2013-07-12 04:53:00
11:53 PM,80.1,43.0,27,29.69,10.0,NW,26.5,35.7,N/A,,Clear,320,2013-07-12 05:53:00